�������l�o���
Date,Time,MP-1(��Sv/h),MP-2(��Sv/h),MP-3(��Sv/h),MP-4(��Sv/h),MP-5(��Sv/h),MP-6(��Sv/h),MP-7(��Sv/h),MP-8(��Sv/h),����,����(m/s),���J
2023/09/24,00:00,0.522,0.792,0.485,0.993,0.703,0.318,0.573,0.530,�k�k��,7.7,��
2023/09/24,00:10,0.523,0.792,0.487,0.993,0.705,0.317,0.571,0.530,�k��,8.1,��
2023/09/24,00:20,0.523,0.794,0.486,0.991,0.704,0.317,0.573,0.530,�k�k��,7.4,��
2023/09/24,00:30,0.523,0.793,0.486,0.995,0.706,0.318,0.571,0.529,�k�k��,6.7,��
2023/09/24,00:40,0.523,0.788,0.484,0.990,0.705,0.318,0.571,0.530,�k�k��,7.0,��
2023/09/24,00:50,0.523,0.793,0.486,0.991,0.704,0.318,0.572,0.530,�k�k��,6.8,��
2023/09/24,01:00,0.521,0.793,0.485,0.992,0.706,0.318,0.571,0.530,�k�k��,6.8,��
2023/09/24,01:10,0.523,0.792,0.485,0.991,0.704,0.317,0.571,0.530,�k�k��,6.9,��
2023/09/24,01:20,0.522,0.792,0.486,0.992,0.704,0.318,0.573,0.532,�k�k��,7.6,��
2023/09/24,01:30,0.524,0.791,0.485,0.992,0.703,0.318,0.572,0.530,�k�k��,8.4,��
2023/09/24,01:40,0.522,0.789,0.485,0.993,0.704,0.318,0.571,0.530,�k�k��,9.5,��
2023/09/24,01:50,0.524,0.790,0.487,0.993,0.704,0.317,0.570,0.530,�k�k��,9.5,��
2023/09/24,02:00,0.522,0.791,0.486,0.992,0.704,0.319,0.570,0.531,�k�k��,9.1,��
2023/09/24,02:10,0.523,0.791,0.487,0.992,0.704,0.318,0.571,0.532,�k�k��,10.0,��
2023/09/24,02:20,0.526,0.793,0.486,0.992,0.704,0.319,0.572,0.530,�k�k��,9.2,��
2023/09/24,02:30,0.523,0.790,0.488,0.991,0.704,0.318,0.572,0.531,�k�k��,7.9,��
2023/09/24,02:40,0.522,0.793,0.485,0.992,0.702,0.318,0.570,0.530,�k�k��,7.5,��
2023/09/24,02:50,0.524,0.793,0.486,0.992,0.704,0.320,0.570,0.530,�k�k��,8.3,��
2023/09/24,03:00,0.522,0.792,0.485,0.993,0.706,0.317,0.571,0.529,�k��,8.0,��
2023/09/24,03:10,0.522,0.792,0.486,0.992,0.705,0.319,0.571,0.532,�k�k��,6.8,��
2023/09/24,03:20,0.523,0.793,0.485,0.995,0.705,0.317,0.571,0.530,�k�k��,6.4,��
2023/09/24,03:30,0.522,0.792,0.485,0.992,0.703,0.318,0.572,0.531,�k�k��,6.7,��
2023/09/24,03:40,0.525,0.793,0.486,0.992,0.704,0.317,0.570,0.531,�k�k��,6.8,��
2023/09/24,03:50,0.523,0.792,0.487,0.991,0.704,0.317,0.572,0.532,�k�k��,7.7,��
2023/09/24,04:00,0.523,0.792,0.486,0.991,0.705,0.318,0.570,0.531,�k�k��,6.9,��
2023/09/24,04:10,0.523,0.792,0.486,0.993,0.706,0.319,0.572,0.531,�k�k��,6.6,��
2023/09/24,04:20,0.523,0.793,0.487,0.992,0.704,0.319,0.572,0.531,�k�k��,7.2,��
2023/09/24,04:30,0.522,0.793,0.486,0.992,0.705,0.319,0.570,0.530,�k��,8.3,��
2023/09/24,04:40,0.523,0.789,0.485,0.992,0.705,0.318,0.572,0.531,�k�k��,9.0,��
2023/09/24,04:50,0.522,0.791,0.486,0.994,0.705,0.318,0.569,0.530,�k�k��,9.1,��
2023/09/24,05:00,0.525,0.791,0.486,0.993,0.704,0.318,0.572,0.531,�k�k��,9.9,��
2023/09/24,05:10,0.525,0.793,0.487,0.993,0.707,0.318,0.570,0.532,�k�k��,9.0,��
2023/09/24,05:20,0.522,0.792,0.486,0.993,0.705,0.317,0.571,0.532,�k�k��,8.1,��
2023/09/24,05:30,0.523,0.793,0.485,0.993,0.706,0.318,0.570,0.531,�k�k��,7.1,��
2023/09/24,05:40,0.524,0.791,0.484,0.992,0.703,0.319,0.572,0.530,�k�k��,7.6,��
2023/09/24,05:50,0.525,0.791,0.485,0.992,0.706,0.319,0.570,0.531,�k�k��,8.2,��
2023/09/24,06:00,0.525,0.792,0.486,0.992,0.705,0.318,0.571,0.531,�k�k��,8.6,��
2023/09/24,06:10,0.522,0.793,0.485,0.994,0.707,0.317,0.570,0.532,�k�k��,8.4,��
2023/09/24,06:20,0.525,0.793,0.487,0.993,0.705,0.319,0.570,0.531,�k�k��,7.4,��
2023/09/24,06:30,0.524,0.794,0.487,0.992,0.704,0.319,0.571,0.530,�k�k��,7.7,��
2023/09/24,06:40,0.525,0.792,0.487,0.994,0.703,0.318,0.571,0.531,�k��,7.7,��
2023/09/24,06:50,0.524,0.793,0.486,0.992,0.706,0.318,0.572,0.530,�k�k��,8.2,��
2023/09/24,07:00,0.522,0.791,0.487,0.995,0.704,0.318,0.570,0.530,�k�k��,8.2,��
2023/09/24,07:10,0.524,0.795,0.485,0.993,0.702,0.319,0.571,0.530,�k�k��,7.6,��
2023/09/24,07:20,0.523,0.793,0.487,0.992,0.705,0.318,0.572,0.530,�k��,6.7,��
2023/09/24,07:30,0.524,0.795,0.486,0.994,0.705,0.319,0.571,0.531,�k��,6.6,��
2023/09/24,07:40,0.524,0.794,0.486,0.995,0.707,0.319,0.571,0.531,�k��,6.6,��
2023/09/24,07:50,0.525,0.793,0.487,0.994,0.704,0.318,0.571,0.530,�k�k��,6.4,��
2023/09/24,08:00,0.524,0.795,0.487,0.992,0.704,0.319,0.571,0.531,�k�k��,6.8,��
2023/09/24,08:10,0.525,0.795,0.486,0.993,0.706,0.317,0.570,0.532,�k�k��,7.2,��
2023/09/24,08:20,0.525,0.795,0.484,0.995,0.704,0.317,0.570,0.531,�k�k��,6.5,��
2023/09/24,08:30,0.524,0.794,0.484,0.994,0.705,0.317,0.570,0.531,�k�k��,7.4,��
2023/09/24,08:40,0.523,0.791,0.485,0.992,0.703,0.316,0.570,0.532,�k�k��,7.3,��
2023/09/24,08:50,0.523,0.794,0.488,0.994,0.705,0.316,0.570,0.531,�k,6.0,��
2023/09/24,09:00,0.523,0.793,0.487,0.994,0.707,0.317,0.570,0.533,�k�k��,6.6,��
2023/09/24,09:10,0.522,0.794,0.487,0.995,0.706,0.316,0.570,0.529,�k�k��,7.2,��
2023/09/24,09:20,0.524,0.796,0.488,0.995,0.705,0.318,0.569,0.530,�k�k��,7.5,��
2023/09/24,09:30,0.522,0.794,0.487,0.996,0.705,0.318,0.570,0.530,�k,7.3,��
2023/09/24,09:40,0.524,0.793,0.485,0.997,0.705,0.319,0.571,0.529,�k�k��,6.9,��
2023/09/24,09:50,0.525,0.794,0.487,0.995,0.706,0.318,0.570,0.531,�k,6.7,��
2023/09/24,10:00,0.525,0.794,0.486,0.995,0.705,0.317,0.571,0.531,�k,5.1,��
2023/09/24,10:10,0.524,0.795,0.487,0.997,0.707,0.318,0.569,0.530,�k,7.4,��
2023/09/24,10:20,0.525,0.797,0.487,0.995,0.708,0.318,0.570,0.530,�k,6.0,��
2023/09/24,10:30,0.525,0.796,0.486,0.995,0.708,0.318,0.570,0.530,�k,6.2,��
2023/09/24,10:40,0.525,0.796,0.487,0.997,0.707,0.318,0.570,0.530,�k,6.2,��
2023/09/24,10:50,0.525,0.797,0.489,0.995,0.707,0.318,0.569,0.530,�k,7.3,��
2023/09/24,11:00,0.525,0.796,0.488,0.996,0.708,0.319,0.570,0.529,�k,6.7,��
2023/09/24,11:10,0.525,0.796,0.489,0.994,0.708,0.318,0.570,0.531,�k,7.2,��
2023/09/24,11:20,0.525,0.797,0.488,0.995,0.709,0.318,0.571,0.531,�k�k��,6.6,��
2023/09/24,11:30,0.527,0.798,0.488,0.995,0.710,0.318,0.571,0.530,�k,6.7,��
2023/09/24,11:40,0.526,0.798,0.488,0.996,0.709,0.318,0.571,0.533,�k,6.3,��
2023/09/24,11:50,0.526,0.798,0.488,0.997,0.711,0.318,0.571,0.531,�k�k��,6.3,��
2023/09/24,12:00,0.525,0.800,0.488,0.996,0.710,0.318,0.570,0.531,�k,6.5,�L
2023/09/24,12:10,0.526,0.797,0.488,0.997,0.708,0.318,0.570,0.530,�k�k��,6.9,�L
2023/09/24,12:20,0.524,0.798,0.489,0.997,0.707,0.319,0.569,0.532,�k�k��,6.4,��
2023/09/24,12:30,0.527,0.798,0.488,0.997,0.708,0.319,0.570,0.533,�k��,6.8,��
2023/09/24,12:40,0.525,0.798,0.490,0.997,0.709,0.319,0.571,0.531,�k�k��,7.5,��
2023/09/24,12:50,0.526,0.800,0.488,0.995,0.711,0.318,0.570,0.530,�k�k��,7.0,��
2023/09/24,13:00,0.527,0.799,0.490,0.996,0.709,0.319,0.569,0.531,�k�k��,6.6,��
2023/09/24,13:10,0.527,0.799,0.490,0.999,0.708,0.319,0.570,0.532,�k�k��,6.7,��
2023/09/24,13:20,0.526,0.797,0.488,0.996,0.709,0.319,0.571,0.531,�k�k��,7.0,��
2023/09/24,13:30,0.526,0.799,0.488,0.996,0.711,0.318,0.571,0.530,�k�k��,6.9,��
2023/09/24,13:40,0.526,0.800,0.487,0.996,0.711,0.318,0.572,0.530,�k�k��,6.4,��
2023/09/24,13:50,0.527,0.800,0.491,0.998,0.711,0.318,0.570,0.529,�k�k��,7.0,��
2023/09/24,14:00,0.527,0.800,0.491,1.000,0.709,0.319,0.571,0.531,�k�k��,5.2,��
2023/09/24,14:10,0.527,0.800,0.490,0.997,0.711,0.317,0.569,0.531,�k��,6.5,��
2023/09/24,14:20,0.526,0.802,0.490,0.997,0.710,0.317,0.570,0.529,�k�k��,6.7,��
2023/09/24,14:30,0.527,0.800,0.489,0.995,0.712,0.320,0.572,0.531,�k�k��,5.9,��
2023/09/24,14:40,0.527,0.801,0.488,0.998,0.711,0.319,0.572,0.532,�k��,6.4,��
2023/09/24,14:50,0.526,0.800,0.490,0.999,0.710,0.318,0.570,0.530,�k,6.7,��
2023/09/24,15:00,0.525,0.800,0.490,0.997,0.709,0.319,0.572,0.531,�k�k��,7.2,��
2023/09/24,15:10,0.525,0.800,0.491,0.999,0.710,0.319,0.570,0.531,�k��,6.4,��
2023/09/24,15:20,0.526,0.800,0.490,0.998,0.712,0.318,0.572,0.531,�k�k��,6.6,��
2023/09/24,15:30,0.527,0.801,0.489,0.998,0.712,0.318,0.570,0.530,�k��,6.5,��
2023/09/24,15:40,0.526,0.800,0.489,0.996,0.710,0.318,0.570,0.530,�k�k��,6.5,��
2023/09/24,15:50,0.528,0.799,0.489,0.998,0.711,0.317,0.572,0.530,�k�k��,5.7,��
2023/09/24,16:00,0.527,0.801,0.490,0.998,0.711,0.319,0.571,0.531,�k�k��,5.7,��
2023/09/24,16:10,0.525,0.801,0.489,0.997,0.712,0.319,0.571,0.529,�k�k��,5.1,��
2023/09/24,16:20,0.527,0.802,0.490,0.998,0.712,0.318,0.570,0.530,�k�k��,4.5,��
2023/09/24,16:30,0.525,0.798,0.488,0.998,0.712,0.319,0.570,0.529,�k�k��,4.8,��
2023/09/24,16:40,0.527,0.803,0.489,0.997,0.711,0.320,0.570,0.532,�k�k��,4.3,��
2023/09/24,16:50,0.525,0.801,0.489,0.996,0.711,0.318,0.572,0.533,�k�k��,4.5,��
2023/09/24,17:00,0.526,0.802,0.489,0.997,0.714,0.319,0.571,0.531,�k�k��,4.1,��
2023/09/24,17:10,0.528,0.801,0.488,0.996,0.713,0.320,0.570,0.531,�k�k��,4.9,��
2023/09/24,17:20,0.527,0.805,0.490,0.999,0.712,0.320,0.571,0.531,�k�k��,5.3,��
2023/09/24,17:30,0.526,0.802,0.491,0.999,0.713,0.320,0.571,0.530,�k��,5.4,��
2023/09/24,17:40,0.526,0.803,0.491,0.999,0.712,0.320,0.570,0.532,�k�k��,4.5,��
2023/09/24,17:50,0.526,0.804,0.492,0.999,0.714,0.319,0.572,0.531,�k�k��,5.6,��
2023/09/24,18:00,0.528,0.805,0.491,0.999,0.713,0.319,0.572,0.533,�k��,5.1,��
2023/09/24,18:10,0.528,0.805,0.491,0.998,0.713,0.319,0.572,0.531,�k��,5.0,��
2023/09/24,18:20,0.530,0.803,0.492,1.001,0.714,0.319,0.573,0.532,�k��,4.9,��
2023/09/24,18:30,0.529,0.804,0.491,1.000,0.714,0.319,0.571,0.532,�k��,4.5,��
2023/09/24,18:40,0.527,0.803,0.493,0.999,0.715,0.319,0.572,0.534,�k�k��,4.5,��
2023/09/24,18:50,0.529,0.804,0.491,1.001,0.713,0.319,0.572,0.533,�k��,4.5,��
2023/09/24,19:00,0.529,0.803,0.492,0.999,0.713,0.318,0.572,0.531,�k�k��,3.8,��
2023/09/24,19:10,0.528,0.803,0.491,1.002,0.714,0.319,0.571,0.533,�k,2.9,��
2023/09/24,19:20,0.528,0.803,0.493,1.000,0.714,0.319,0.572,0.532,�k,3.1,��
2023/09/24,19:30,0.530,0.803,0.492,1.000,0.712,0.320,0.573,0.531,�k,3.3,��
2023/09/24,19:40,0.529,0.802,0.491,0.998,0.715,0.319,0.572,0.532,�k,2.5,��
2023/09/24,19:50,0.529,0.804,0.491,0.999,0.715,0.321,0.572,0.531,�k,3.3,��
2023/09/24,20:00,0.528,0.802,0.492,1.000,0.714,0.321,0.572,0.532,�k,3.5,��
2023/09/24,20:10,0.527,0.804,0.490,1.000,0.713,0.319,0.572,0.531,�k,4.0,��
2023/09/24,20:20,0.528,0.804,0.492,0.998,0.714,0.320,0.574,0.531,�k,4.5,��
2023/09/24,20:30,0.529,0.804,0.491,0.997,0.713,0.319,0.573,0.532,�k,3.8,��
2023/09/24,20:40,0.528,0.803,0.492,0.999,0.714,0.319,0.573,0.532,�k,4.1,��
2023/09/24,20:50,0.530,0.805,0.492,1.000,0.714,0.318,0.575,0.532,�k�k��,3.9,��
2023/09/24,21:00,0.529,0.803,0.491,1.000,0.714,0.320,0.572,0.532,�k�k��,3.9,��
2023/09/24,21:10,0.528,0.803,0.491,1.002,0.715,0.319,0.574,0.533,�k�k��,4.1,��
2023/09/24,21:20,0.528,0.805,0.491,0.999,0.714,0.319,0.572,0.532,�k�k��,3.8,��
2023/09/24,21:30,0.530,0.803,0.492,1.000,0.713,0.321,0.571,0.531,�k�k��,4.2,��
2023/09/24,21:40,0.530,0.801,0.493,1.000,0.712,0.320,0.571,0.532,�k�k��,3.7,��
2023/09/24,21:50,0.529,0.803,0.491,1.002,0.714,0.321,0.573,0.532,�k,3.6,��
2023/09/24,22:00,0.532,0.803,0.490,1.000,0.715,0.319,0.574,0.533,�k�k��,3.6,��
2023/09/24,22:10,0.529,0.802,0.492,1.002,0.714,0.320,0.575,0.532,�k�k��,3.5,��
2023/09/24,22:20,0.528,0.803,0.491,1.000,0.712,0.319,0.574,0.531,�k�k��,3.5,��
2023/09/24,22:30,0.529,0.805,0.491,1.000,0.715,0.320,0.573,0.532,�k�k��,3.8,��
2023/09/24,22:40,0.530,0.804,0.491,1.001,0.713,0.320,0.574,0.533,�k�k��,3.4,��
2023/09/24,22:50,0.530,0.803,0.490,1.001,0.713,0.318,0.574,0.531,�k�k��,3.4,��
2023/09/24,23:00,0.529,0.804,0.492,1.000,0.714,0.320,0.574,0.532,�k�k��,3.8,��
2023/09/24,23:10,0.528,0.801,0.490,1.001,0.714,0.320,0.574,0.533,�k�k��,3.6,��
2023/09/24,23:20,0.529,0.802,0.492,1.001,0.714,0.320,0.574,0.531,�k��,3.5,��
2023/09/24,23:30,0.528,0.803,0.489,1.001,0.711,0.318,0.573,0.531,�k�k��,3.6,��
2023/09/24,23:40,0.529,0.803,0.491,1.001,0.713,0.319,0.575,0.532,�k�k��,3.5,��
2023/09/24,23:50,0.528,0.801,0.491,1.000,0.712,0.319,0.575,0.533,�k�k��,3.3,��
